Regional Weather Roundup
Issued by NWS Newport/Morehead, NC

Current Version | Previous Version | Text Only | Print | Product List | Glossary On
Versions: 1 2 3 4 5 6 7 8 9 10 11 12 13 14 15 16 17 18 19 20 21 22 23 24 25 26 27 28 29 30 31 32 33 34 35 36 37 38 39 40 41 42 43 44 45 46 47 48 49 50
000
ASUS42 KMHX 232225
RWRMHX
WEATHER ROUNDUP FOR EASTERN NORTH CAROLINA
NATIONAL WEATHER SERVICE NEWPORT/MOREHEAD CITY NC
600 PM EDT THU MAR 23 2017

NOTE: "FAIR" INDICATES FEW OR NO CLOUDS BELOW 12,000 FEET
WITH NO SIGNIFICANT WEATHER AND/OR OBSTRUCTIONS TO VISIBILITY

NCZ015>017-031-032-045>047-102-103-232300-
NORTH COAST

CITY           SKY/WX    TMP DP  RH WIND       PRES   REMARKS
EDENTON        SUNNY     45  28  52 SE7       30.58S
ELIZABETH CITY SUNNY     43  22  43 E6        30.58F
KITTY HAWK     NOT AVBL
MANTEO         SUNNY     39  25  57 NE9       30.59R

$$

NCZ045>047-081-094-103-104-232300-
CENTRAL COAST

CITY           SKY/WX    TMP DP  RH WIND       PRES   REMARKS
FRISCO         SUNNY     44  29  55 VRB7      30.58S

$$

NCZ095-097-098-100-101-232300-
SOUTHERN COAST

CITY           SKY/WX    TMP DP  RH WIND       PRES   REMARKS
BEAUFORT       SUNNY     48  28  46 NE9       30.56S
CEDAR ISLAND   NOT AVBL
JACKSONVILLE   SUNNY     55  26  32 E6        30.53S
PINEY ISLAND   CLEAR    N/A N/A N/A NE12      30.56F
WILMINGTON     SUNNY     51  32  48 E12       30.55S


$$

NCZ011>013-027>030-043-044-078>080-089-090>093-098-232300-
COASTAL PLAIN

CITY           SKY/WX    TMP DP  RH WIND       PRES   REMARKS
AHOSKIE          N/A     49  14  24 E5        30.55F
CLINTON        SUNNY     55  26  32 NE3       30.53F
ELIZABETHTOWN  SUNNY     57  24  27 NE3       30.51S
GOLDSBORO      SUNNY     54  19  25 E5        30.52F
GREENVILLE     SUNNY     52  19  28 SE5       30.54F
HAVELOCK       MOSUNNY   48  30  49 NE10      30.57S
KENANSVILLE    SUNNY     54  23  30 N5        30.53S
KINSTON        SUNNY     54  21  28 MISG      30.55S
NEW BERN       SUNNY     51  26  37 E8        30.56S
RICHLANDS      SUNNY     54  25  32 NE6       30.54S
ROCKY MOUNT    SUNNY     51  17  26 VRB3      30.54F
WASHINGTON     SUNNY     48  26  41 E7        30.56S
WHITEVILLE     SUNNY     58  20  22 E5        30.51S

$$

AMZ130-135-150-152-154-156-158-170-250-252-270-ANZ085-086-088-633-658-670-232300-
MARINE OBSERVATIONS

STATION/POSITION TIME  TEMP    WIND        PRES    WAVE   SWELL
                       AIR SEA DIR/SP/G            HT/PER HT/PER
                 (UTC) (F)     (DEG/KT/KT) (MB)    (FT/S) (FT/S)
CHESAPEAKE LIGHT NOT AVBL
64 E VA BEACH    2150   39 50  360/  8/ 12 1035.8    5/ 7   5/ 7
DUCK             2200   38 48   40/ 10/ 12 1035.0
2 E DUCK         2200      47                N/A     4/ 7   2/11
OREGON INLET     2200   39 50   20/ 10/ 13 1035.5
13E OREGON INLT  NOT AVBL
HATTERAS CG      2200   42 52   40/ 10/ 14 1035.0
DIAMOND BUOY     2150   47 73   20/ 16/ 21 1034.7   10/11  10/11
CAPE LOOKOUT     2200   45      30/ 16/ 18 1034.5
BEAUFORT LAB     2200   47 51   30/  7/ 11 1034.1
30 SE NEW RVR IN 2208   50      50/ 14/ 21 1034.4
30 SE NEW RVR IN 2213      68                N/A     5/10   2/11
27 SE WRIGHTSVLE 2208   50 62   70/ 16/ 23 1033.7
5 SE WRIGHTSVLE  2208   50 57  100/ 14/ 21 1034.3
225 S CAPE HAT   2150   61 72   50/ 19/ 23 1029.8    7/10   7/10
41 SE CHARLESTON 2150   60 71   40/ 23/ 27 1030.3    7/ 7   2/10

$$




USA.gov is the U.S. government's official web portal to all federal, state and local government web resources and services.